Hourly Weather Roundup
Issued by NWS Central Illinois

Home | Current Version | Previous Version | Text Only | Print | Product List | Glossary On
Versions: 1 2 3 4 5 6 7 8 9 10 11 12 13 14 15 16 17 18 19 20 21 22 23 24 25 26 27 28 29 30 31 32 33 34 35 36 37 38 39 40 41 42 43 44 45 46 47 48 49 50
000
NZUS43 KILX 311210
HWRILX

AREA WEATHER ROUNDUP
NATIONAL WEATHER SERVICE, LINCOLN IL
700 AM CDT TUE MAY 31 2016


CITY           SKY/WX    TMP DP  RH WIND       PRES   REMARKS
BLOOMINGTON    CLOUDY    68  64  86 SE3       30.00S
6HR MIN TEMP:  68; 6HR MAX TEMP:  73;

CHAMPAIGN      CLOUDY    66  62  87 E5        30.00R
6HR MIN TEMP:  63; 6HR MAX TEMP:  68;

DANVILLE       CLOUDY    66  62  87 CALM      29.98R
6HR MIN TEMP:  62; 6HR MAX TEMP:  66;

DECATUR        CLOUDY    68  62  81 CALM      29.99R
6HR MIN TEMP:  65; 6HR MAX TEMP:  70;

EFFINGHAM      PTSUNNY   67  67 100 CALM      30.00S
FLORA          MOSUNNY   72  66  83 CALM      29.99R
6HR MIN TEMP:  67; 6HR MAX TEMP:  72;

GALESBURG      PTSUNNY   65  64  96 CALM      29.98R
JACKSONVILLE   CLOUDY    69  63  82 CALM      29.98R
6HR MIN TEMP:  65; 6HR MAX TEMP:  70;

LACON          CLOUDY    68  62  80 SE3       29.97R
6HR MIN TEMP:  63; 6HR MAX TEMP:  71;

LAWRENCEVILLE  MOSUNNY   67  63  87 N3        29.99R
6HR MIN TEMP:  64; 6HR MAX TEMP:  70;

LITCHFIELD     CLOUDY    68  59  74 NE5       29.98S
$$


CITY           SKY/WX    TMP DP  RH WIND       PRES   REMARKS
LINCOLN        CLOUDY    68  64  85 CALM      29.98R
6HR MIN TEMP:  67; 6HR MAX TEMP:  72;

MACOMB         CLOUDY    65  63  92 SW5       30.00R
MATTOON        CLOUDY    67  63  87 CALM      29.99R
6HR MIN TEMP:  64; 6HR MAX TEMP:  70;

MT CARMEL AP   PTSUNNY   65  62  90 CALM      29.99R
6HR MIN TEMP:  64; 6HR MAX TEMP:  67;

OLNEY-NOBLE AP CLOUDY    66  64  94 CALM      29.99R
PARIS          CLOUDY    66  64  93 CALM      30.01S
6HR MIN TEMP:  63; 6HR MAX TEMP:  66;

PEORIA         CLOUDY    68  63  84 S3        29.98R
6HR MIN TEMP:  66; 6HR MAX TEMP:  71;

PONTIAC        MOSUNNY   71  63  77 CALM      29.99R
RANTOUL        MOSUNNY   71  62  72 S5        30.00R
6HR MIN TEMP:  66; 6HR MAX TEMP:  71;

ROBINSON       PTSUNNY   65  64  99 CALM      30.00S
6HR MIN TEMP:  60; 6HR MAX TEMP:  66;

SPRINGFIELD    CLOUDY    69  63  81 CALM      29.98R
6HR MIN TEMP:  64; 6HR MAX TEMP:  69;

TAYLORVILLE    CLOUDY    66  63  90 CALM      29.98F
$$

...REGIONAL REPORTS...


CITY           SKY/WX    TMP DP  RH WIND       PRES   REMARKS
CHICAGO O`HARE PTSUNNY   69  54  58 E8        30.00R
KANKAKEE       CLOUDY    66  59  77 E6        30.00R
MOLINE         CLOUDY    71  64  78 CALM      29.96R
MOUNT STERLING CLOUDY    65  63  93 SW3       29.99R
MOUNT VERNON   CLOUDY    66  63  88 CALM      29.99R
PITTSFIELD     LGT RAIN  67  64  91 CALM      30.01R
QUINCY         CLOUDY    67  62  84 S5        29.99R
ROCKFORD       CLOUDY    68  60  75 E6        30.00S
$$


CITY           SKY/WX    TMP DP  RH WIND       PRES   REMARKS
BURLINGTON     SUNNY     67  64  90 SW8       29.97R
CEDAR RAPIDS   SUNNY     63  62  97 S5        29.95R
DES MOINES     CLOUDY    66  59  78 S7        29.94R
KIRKSVILLE     CLOUDY    64  62  93 S3        30.00R
OTTUMWA        MOSUNNY   63  60  90 S7        29.98R
ST LOUIS       LGT RAIN  72  62  71 S15G23    30.01R
$$


CITY           SKY/WX    TMP DP  RH WIND       PRES   REMARKS
TERRE HAUTE    MOSUNNY   67  63  87 CALM      30.00R
EVANSVILLE     PTSUNNY   67  62  84 CALM      29.99R
INDIANAPOLIS   CLOUDY    68  61  78 SW5       30.00R
LAFAYETTE      PTSUNNY   63  60  90 CALM      30.00R
MADISON        PTSUNNY   67  58  72 E6        29.98F
MILWAUKEE      CLOUDY    64  56  75 E3        30.03R
$$





USA.gov is the U.S. government's official web portal to all federal, state and local government web resources and services.